Change the Weather History Date:

Saturday, October 8, 2011

  Actual Average Record
Temperature  
Mean Temperature 66 °F -  
Max Temperature 80 °F 66 °F 89 °F (2007)
Min Temperature 52 °F 43 °F 30 °F (2000)
Growing Degree Days 16 (Base 50)    
Moisture  
Dew Point 52 °F    
Average Humidity 67    
Maximum Humidity 93    
Minimum Humidity 34    
Precipitation  
Precipitation 0.00 in - - ()
Sea Level Pressure  
Sea Level Pressure 30.39 in    
Wind  
Wind Speed 4 mph (SE)    
Max Wind Speed 10 mph    
Max Gust Speed -    
Visibility 10 miles    
Events      
Averages and records for this station are not official NWS values.
T = Trace of Precipitation, MM = Missing Value Source: NWS Daily Summary

Daily Weather History Graph

Daily Weather History Graph

Search for Another Location

Airport or City:

Trip Planner

Search our weather history database for the weather conditions in past years. The results will help you decide how hot, cold, wet, or windy it might be!

Date:

Astronomy

Oct. 08, 2011 Rise Set
Actual Time 7:35 AM EDT 7:03 PM EDT
Civil Twilight 7:08 AM EDT 7:30 PM EDT
Nautical Twilight 6:36 AM EDT 8:02 PM EDT
Astronomical Twilight 6:05 AM EDT 8:33 PM EDT
Moon 5:13 PM EDT (10/8) 4:21 AM EDT (10/8)
Length of Visible Light 12h 22m
Length of Day
11h 28m
Waxing Gibbous, 90% of the Moon is Illuminated
Oct 8
Waxing Gibbous
Oct 11
Full
Oct 19
Last Quarter
Oct 26
New
Nov 2
First Quarter

Hourly Weather History & Observations

Time (EDT) Temp. Dew Point Humidity Pressure Visibility Wind Dir Wind Speed Gust Speed Precip Events Conditions
12:53 AM 57.0 °F 51.1 °F 81% 30.37 in 10.0 mi ESE 4.6 mph - N/A   Clear
1:53 AM 55.0 °F 51.1 °F 86% 30.37 in 9.0 mi Calm Calm - N/A   Clear
2:53 AM 55.0 °F 51.1 °F 86% 30.37 in 9.0 mi East 3.5 mph - N/A   Clear
3:53 AM 53.1 °F 48.9 °F 86% 30.37 in 9.0 mi Calm Calm - N/A   Clear
4:53 AM 53.1 °F 51.1 °F 93% 30.38 in 7.0 mi Calm Calm - N/A   Clear
5:53 AM 52.0 °F 50.0 °F 93% 30.38 in 8.0 mi ESE 3.5 mph - N/A   Clear
6:53 AM 53.1 °F 48.9 °F 86% 30.40 in 10.0 mi ESE 3.5 mph - N/A   Clear
7:53 AM 52.0 °F 48.9 °F 89% 30.43 in 8.0 mi SE 3.5 mph - N/A   Clear
8:53 AM 59.0 °F 54.0 °F 83% 30.44 in 9.0 mi SE 4.6 mph - N/A   Clear
9:53 AM 64.0 °F 55.0 °F 73% 30.45 in 10.0 mi South 10.4 mph - N/A   Clear
10:53 AM 66.9 °F 54.0 °F 63% 30.44 in 10.0 mi South 6.9 mph - N/A   Clear
11:53 AM 70.0 °F 55.0 °F 59% 30.44 in 10.0 mi South 8.1 mph - N/A   Clear
12:53 PM 73.0 °F 55.9 °F 55% 30.43 in 10.0 mi Calm Calm - N/A   Clear
1:53 PM 75.9 °F 55.0 °F 48% 30.40 in 10.0 mi SE 4.6 mph - N/A   Clear
2:53 PM 79.0 °F 48.0 °F 34% 30.38 in 10.0 mi South 5.8 mph - N/A   Clear
3:53 PM 79.0 °F 50.0 °F 36% 30.37 in 10.0 mi South 5.8 mph - N/A   Clear
4:53 PM 79.0 °F 52.0 °F 39% 30.36 in 10.0 mi SE 5.8 mph - N/A   Clear
5:53 PM 77.0 °F 51.1 °F 40% 30.35 in 10.0 mi SSE 5.8 mph - N/A   Clear
6:53 PM 73.0 °F 52.0 °F 48% 30.36 in 10.0 mi ESE 4.6 mph - N/A   Clear
7:53 PM 69.1 °F 52.0 °F 54% 30.37 in 10.0 mi ESE 3.5 mph - N/A   Clear
8:53 PM 66.0 °F 53.1 °F 63% 30.38 in 10.0 mi Calm Calm - N/A   Clear
9:53 PM 62.1 °F 53.1 °F 72% 30.38 in 10.0 mi East 4.6 mph - N/A   Clear
10:53 PM 62.1 °F 53.1 °F 72% 30.39 in 10.0 mi Calm Calm - N/A   Clear
11:53 PM 59.0 °F 52.0 °F 78% 30.38 in 10.0 mi ESE 3.5 mph - N/A   Clear